{"data":{"norad_id":62978,"intl_designator":"2025-030H","name":"HULIANWANG DIGUI-18","alt_names":[],"object_type":"PAYLOAD","status":"ACTIVE","operator":null,"country":"PRC","launch_date":"2025-02-11","launch_site_code":"WSC","launch_vehicle":null,"mission":null,"orbit_class":"UNKNOWN","rcs_meters":null,"size_class":null,"mass_kg":null,"dimensions":null,"purposes":[],"wikipedia_slug":null,"has_3d_model":false,"image_url":null,"decayed_at":null,"tle_current":{"epoch":"2026-09-22T21:50:40.885152Z","epoch_age_seconds":107926,"freshness":"FRESH","line1":"1 62978U 25030H   26265.91019543 -.00000100  00000+0  51952-4 0  9992","line2":"2 62978  50.0056 245.0647 0000617  45.4935 314.5987 13.29326204 78860","mean_motion":13.29326204,"eccentricity":6.17e-5,"inclination_deg":50.0056,"raan_deg":245.0647,"arg_perigee_deg":45.4935,"mean_anomaly_deg":314.5987,"bstar":5.1952e-5,"rev_number":7886,"period_min":108.3255558844,"perigee_km":1148.8413585192,"apogee_km":1149.7702449609,"semimajor_km":7527.4428017401,"source":"CELESTRAK","updated_at":"2026-09-23T09:00:21.736975Z"}}}